Theta_e
296 296 297 297 297 297 298 299 300 302 303 304 305 308 312 313 314 317 315 312 311 309
295 294 293 294 294 294 297 298 299 300 300 301 302 304 308 311 312 315 316 315 313 310
292 293 294 294 294 294 294 295 297 298 299 299 300 303 305 310 312 313 315 314 311 310
290 290 291 291 292 293 293 294 295 296 296 296 296 300 303 306 310 311 312 313 312 309
290 290 289 289 290 292 291 292 293 295 295 295 295 297 301 303 307 309 309 310 309 308
288 289 288 288 289 290 291 291 292 292 293 294 295 295 298 301 305 308 310 310 307 305
288 288 289 289 289 290 290 290 291 293 293 293 294 295 295 299 299 306 309 310 306 304
289 288 288 288 289 289 290 290 290 291 293 293 293 294 295 298 299 304 306 307 305 303
287 287 287 288 288 289 289 289 290 290 291 292 293 294 295 297 297 304 304 300 298 298
286 286 286 287 288 288 289 288 288 289 291 291 293 294 294 294 300 301 300 295 293 291
285 285 286 285 286 287 287 287 288 289 291 292 293 294 295 293 296 295 294 294 293 292
285 285 285 285 285 286 287 286 286 287 290 290 291 294 293 291 290 288 288 289 289 289
285 285 285 285 285 285 286 286 286 286 287 288 291 293 292 290 288 286 286 286 286 286
285 285 285 285 285 285 285 286 285 285 286 287 288 290 291 290 288 286 285 285 285 287
Wind_Speed
20 13 14 17 15 13 13 13 16 15 16 17 16 15 15 13 13 15 16 20 18 12
16 18 15 18 16 14 15 14 16 15 17 17 17 16 16 14 16 15 17 18 17 14
15 17 18 16 18 18 16 16 16 15 16 15 16 17 17 16 17 17 14 13 17 17
15 16 16 15 17 18 17 16 16 16 15 17 15 19 18 18 18 21 18 17 19 19
17 17 17 16 17 18 17 16 17 16 16 16 17 16 19 19 18 21 21 19 18 19
17 17 16 17 17 17 17 17 17 16 16 15 16 16 17 17 17 18 19 19 18 17
17 17 16 16 16 16 16 16 16 16 17 15 15 15 15 16 16 16 17 17 16 16
17 15 15 15 16 16 15 14 15 14 15 14 15 13 16 17 16 16 16 15 14 14
14 14 14 14 15 15 14 13 12 14 14 13 9 13 13 15 14 15 14 12 9 11
13 13 13 13 11 7 6 8 10 11 11 11 11 13 14 11 15 13 12 12 11 8
12 13 12 10 9 4 2 4 5 7 8 8 8 13 15 11 8 9 10 12 12 12
11 12 10 10 9 6 4 4 2 2 6 7 5 12 17 9 10 11 9 7 8 11
10 9 9 9 9 7 6 6 5 8 5 6 7 17 18 13 8 10 9 8 8 11
9 8 8 7 7 7 8 9 9 11 10 11 9 8 15 18 9 9 9 8 8 8
Wind_Direction
280 277 276 271 265 266 263 255 248 241 233 229 227 225 223 232 231 217 206 205 200 199
278 275 267 269 268 269 266 256 250 238 234 233 234 229 224 224 227 221 212 203 201 202
284 285 280 275 268 260 257 259 252 242 234 237 241 235 229 224 222 218 208 202 195 199
285 280 274 271 272 268 263 258 250 246 236 230 230 234 232 229 222 216 208 200 197 195
286 279 273 267 264 260 256 249 251 243 239 228 223 229 232 227 225 217 208 203 204 194
291 284 276 269 263 256 252 245 240 238 236 227 218 223 234 234 235 220 208 198 196 194
290 288 281 274 266 254 245 241 237 233 230 228 225 225 230 236 240 222 206 197 192 189
300 292 285 277 267 255 242 234 227 225 228 225 224 224 222 229 230 225 195 187 187 183
302 301 297 292 283 264 236 221 215 212 218 217 223 216 212 219 234 200 182 175 166 172
314 311 313 306 300 314 211 190 201 204 206 211 214 215 221 227 234 170 167 156 156 150
324 323 319 320 335 3 77 174 194 197 210 191 205 216 198 189 147 131 139 152 157 159
329 327 333 345 349 4 45 54 70 167 181 185 194 167 125 134 109 106 108 118 138 147
333 337 348 360 358 3 34 45 50 49 55 140 149 153 134 120 114 113 112 101 106 125
344 345 358 15 26 31 38 47 44 56 48 58 74 98 124 126 120 125 119 122 122 142